Location: ??
(34.9170°N, 135.5016°E)
Time: 00:47:40
(UTC+00:00)

RS-15 - Pass Details

Date: 29 April 2021
Orbit: 1888 x 2157 km, 64.8° (Epoch: 12 May)

Event Time Altitude Azimuth Distance (km) Brightness Sun altitude
Rises 11:47:08 0° 294° (WNW) 5,377 11.6 -23.3°
Reaches altitude 10° 11:53:17 10° 319° (NW) 4,438 11.0 -24.3°
Maximum altitude 11:58:33 14° 347° (NNW) 4,182 10.4 -25.1°
Drops below altitude 10° 12:03:55 10° 16° (NNE) 4,544 10.3 -25.9°
Sets 12:10:27 0° 41° (NE) 5,604 10.5 -26.9°
